Theta_e
299 299 299 298 298 297 297 297 296 296 296 296 296 297 297 298 298 299 300 300 303 303 303 303 303 303 303 316 315 312 310 308 309 311 313 313 314 316 318 321 324 326 325 325 324 322 322
297 299 296 298 297 297 297 297 296 295 295 294 295 296 296 297 298 299 300 300 301 303 303 303 303 303 304 313 312 309 309 309 311 313 313 312 313 315 317 319 323 325 326 325 325 323 323
297 297 297 296 296 297 296 296 296 295 293 293 294 295 296 297 298 299 299 299 300 302 303 303 304 303 310 311 311 310 310 309 309 311 313 314 313 314 316 317 319 322 324 325 325 323 324
296 297 297 296 296 296 296 296 296 294 293 293 293 294 296 296 297 298 299 299 300 302 303 304 305 305 313 312 311 310 310 310 310 311 311 313 313 313 315 317 318 321 323 324 324 324 325
296 297 297 297 296 296 296 296 295 294 293 293 293 294 295 296 297 298 299 300 301 302 303 305 307 315 314 312 311 308 308 309 311 311 311 312 312 313 314 316 317 320 322 323 324 325 327
296 296 296 297 296 295 296 296 295 294 293 292 293 294 295 296 297 298 299 301 307 305 308 309 310 312 312 311 311 311 311 310 311 312 312 312 312 313 314 315 316 318 320 322 325 326 326
295 296 297 296 296 295 295 295 296 294 292 292 293 293 294 295 296 303 305 312 314 317 315 315 315 312 312 311 311 311 311 311 310 312 313 313 313 312 313 315 315 317 318 320 322 326 326
294 295 294 294 295 295 295 295 296 293 292 291 292 293 294 295 297 305 308 309 305 306 309 310 312 313 314 313 311 312 311 311 311 312 314 314 314 314 315 315 316 316 316 318 320 324 327
294 294 294 295 295 295 295 294 294 292 291 291 292 293 295 296 300 303 308 305 305 310 312 311 312 311 311 311 312 312 312 312 313 313 313 314 314 316 315 314 314 315 317 318 318 321 326
294 294 294 294 293 294 294 294 294 291 291 291 292 293 297 297 305 304 308 304 306 309 314 316 312 313 311 311 312 312 312 312 313 312 313 314 314 314 315 314 314 314 316 317 317 319 326
294 294 294 293 293 293 294 293 292 291 291 291 292 294 298 302 303 306 303 303 306 311 326 314 312 313 313 312 313 313 312 312 313 313 313 313 314 314 314 314 314 314 315 315 316 317 320
293 294 294 293 292 293 293 292 291 291 291 292 292 294 298 302 306 305 301 303 310 321 319 311 314 314 314 313 313 312 312 311 312 313 313 314 314 314 314 314 314 314 313 314 315 316 317
293 292 293 293 293 293 292 291 291 291 291 291 292 295 299 303 303 301 302 310 321 321 311 311 312 312 313 314 315 313 313 312 312 312 312 313 313 314 314 313 314 314 313 313 313 314 316
289 293 292 292 293 292 291 291 291 291 291 291 293 298 301 300 299 300 308 315 316 313 312 310 311 310 310 311 312 313 314 313 313 312 312 313 313 313 314 313 313 313 313 315 313 315 315
287 290 293 292 293 292 291 291 291 291 291 291 295 300 302 296 299 304 310 319 315 311 307 306 309 310 309 309 310 312 313 313 313 314 313 312 313 314 315 315 314 313 313 315 316 316 317
286 286 291 293 292 292 292 291 291 291 290 293 297 300 302 295 302 308 311 311 310 306 305 305 307 309 310 312 312 312 312 312 312 312 312 315 316 315 314 315 314 314 314 315 316 314 315
286 286 287 291 292 292 292 292 291 291 290 295 298 301 300 298 303 308 313 309 305 303 302 304 306 307 308 309 310 310 312 311 309 310 312 314 315 315 315 314 314 314 314 314 315 316 316
286 286 286 288 291 292 292 292 292 291 290 295 298 303 298 300 302 302 306 302 300 302 302 303 304 305 306 306 307 308 310 312 306 308 310 310 313 316 316 315 315 314 315 315 314 314 316
286 287 287 287 290 291 291 292 291 291 290 293 297 299 298 298 302 303 299 299 300 299 299 300 301 303 302 303 303 306 307 308 305 305 305 305 311 314 313 313 314 314 314 314 316 317 316
286 288 290 289 289 291 291 292 292 291 290 293 296 300 297 297 297 298 298 299 298 297 297 297 297 300 300 300 300 303 305 306 304 302 301 303 308 311 314 313 314 314 315 315 316 317 317
288 289 290 289 290 291 291 291 292 291 290 293 295 296 296 298 301 296 297 297 297 296 295 295 296 299 297 296 297 297 299 299 299 300 301 303 305 307 308 310 311 312 314 315 316 316 317
290 290 290 290 291 290 291 291 291 291 290 294 293 294 293 294 296 296 296 297 296 295 295 295 295 295 295 295 296 295 296 296 296 297 300 302 304 303 304 304 308 310 311 312 314 316 316
290 290 290 290 291 290 291 291 290 291 291 293 293 293 293 294 295 297 297 296 295 295 295 294 295 295 295 295 295 294 293 293 294 295 296 297 300 301 302 302 304 308 309 311 313 314 316
290 290 290 290 290 290 291 290 290 290 291 292 293 293 293 294 294 295 295 295 295 294 295 294 294 294 294 294 293 293 293 294 295 296 295 296 296 298 301 302 306 305 307 309 311 313 313
290 290 290 289 289 290 290 290 290 289 291 291 292 292 293 295 294 294 293 294 294 293 293 293 294 294 294 293 294 294 295 295 297 298 297 298 297 298 299 301 302 303 305 308 310 312 313
290 290 290 289 289 289 290 290 290 290 290 290 291 291 292 293 294 293 293 293 294 293 294 293 293 293 293 294 295 294 294 294 295 296 299 299 300 299 299 300 301 302 304 305 308 309 310
290 290 290 290 290 290 290 290 290 290 290 290 290 291 292 292 293 292 293 293 293 293 293 292 292 292 292 294 296 295 294 294 295 295 296 298 298 301 300 300 300 302 303 304 305 309 305
290 290 290 290 290 290 290 290 290 290 289 290 290 291 292 292 292 292 292 292 292 292 294 293 292 292 292 293 295 295 295 294 295 295 295 296 299 300 301 302 301 301 304 308 304 305 302
291 291 291 290 290 290 290 290 290 290 289 289 290 291 291 291 292 292 292 292 292 292 292 292 292 291 291 292 293 294 294 294 294 295 296 297 298 299 298 300 301 300 299 301 302 300 302
Wind_Speed
24 26 26 26 26 26 27 27 28 28 27 26 24 22 21 21 20 19 18 16 15 14 14 15 14 13 10 7 13 13 12 11 7 3 8 14 19 18 19 21 25 22 19 26 24 3 10
23 26 26 28 28 28 29 29 29 28 27 26 26 24 23 22 21 20 18 16 14 13 13 12 12 10 8 12 6 6 6 7 8 9 9 13 17 19 21 23 22 27 25 16 22 7 16
24 25 26 29 29 29 30 31 31 29 28 26 26 25 24 24 23 21 18 15 13 13 12 10 9 8 10 22 7 8 9 8 9 11 12 10 14 19 15 15 22 23 21 14 21 13 16
25 26 27 28 28 30 30 32 31 31 29 28 28 27 25 24 23 21 18 15 12 12 10 9 7 5 11 7 10 12 12 12 11 10 12 11 7 13 17 18 22 19 20 16 17 14 16
25 26 28 29 31 31 32 33 33 32 30 29 29 28 27 24 22 20 17 13 11 10 9 8 5 2 10 8 14 10 12 13 12 11 12 11 10 14 17 15 14 17 17 21 23 21 15
27 27 27 29 30 31 32 32 34 33 32 30 30 29 27 24 21 18 15 10 10 9 7 7 9 9 13 10 4 6 8 11 13 10 12 13 11 13 14 14 18 21 20 22 21 23 22
25 24 27 29 29 31 31 33 33 34 35 33 32 30 25 22 17 14 14 11 6 2 7 12 8 13 3 4 7 9 9 10 14 13 13 18 13 16 18 20 24 22 24 26 22 23 25
27 27 26 26 28 30 31 32 35 35 35 34 33 30 24 18 11 10 15 7 9 8 14 21 29 27 23 13 10 11 10 10 15 16 15 14 19 17 18 20 21 24 25 26 24 23 20
28 29 29 27 29 30 31 33 34 35 35 33 33 27 22 13 9 11 8 12 11 9 8 13 15 20 20 19 24 23 18 18 14 17 17 19 15 19 16 18 21 22 23 23 26 18 5
30 31 31 29 28 30 32 34 35 36 37 34 32 25 21 13 6 13 2 15 13 7 5 7 6 3 8 8 10 24 21 20 17 19 18 18 18 19 17 15 18 21 21 21 23 24 10
28 30 31 31 32 31 33 35 37 37 36 34 32 21 16 18 7 10 13 15 11 5 3 5 8 4 3 11 13 11 22 21 19 17 15 18 19 18 19 20 15 19 18 19 23 23 16
30 30 30 31 32 32 34 36 38 38 36 34 30 15 19 12 8 12 17 9 5 2 5 5 4 3 8 12 13 9 5 21 16 19 21 20 23 17 16 15 17 17 16 19 20 16 17
28 30 30 32 33 33 36 37 38 38 36 35 26 12 16 16 14 18 8 7 3 4 1 2 6 9 10 12 10 12 9 13 12 14 17 20 24 21 19 13 15 15 14 11 12 14 15
27 28 30 30 33 35 36 38 39 39 36 34 24 11 13 11 17 12 7 5 2 9 8 16 12 17 16 16 17 15 13 14 17 18 17 16 18 23 20 24 18 19 18 12 14 15 17
27 27 29 31 32 34 36 37 40 40 37 31 23 10 6 21 15 7 7 2 2 9 11 14 18 15 14 13 13 12 11 15 16 12 18 16 26 23 18 23 23 23 19 19 18 19 14
26 27 27 29 32 33 35 36 38 40 38 27 20 12 7 18 11 3 6 1 3 9 11 10 8 11 12 15 14 6 10 15 14 18 18 9 17 18 25 15 15 19 16 15 12 21 21
25 26 26 27 30 32 33 34 36 38 39 22 16 10 14 6 11 5 1 2 4 10 11 8 12 14 14 15 16 16 15 16 17 19 15 13 10 16 21 22 16 14 15 18 16 13 16
25 26 26 26 27 31 30 32 33 35 39 23 17 5 20 10 8 5 4 5 7 9 10 6 9 7 10 12 13 14 16 10 17 19 11 12 6 9 21 20 22 22 21 19 13 21 16
27 27 26 24 26 28 29 28 29 30 31 28 17 10 14 16 4 4 5 7 2 6 8 7 7 6 10 10 6 11 10 14 20 16 11 11 5 9 18 17 21 22 23 17 18 15 20
28 27 25 25 24 26 28 26 26 25 23 22 11 4 7 10 9 8 7 5 6 4 6 10 11 9 7 10 11 10 16 9 18 17 9 11 8 12 14 19 21 18 22 23 20 14 15
27 26 25 25 22 25 26 24 23 21 17 14 8 5 8 5 5 9 7 9 8 6 6 12 4 5 10 8 15 12 14 20 24 19 12 6 10 14 20 23 27 25 25 23 22 21 18
26 25 26 24 22 24 24 23 21 18 15 10 7 6 12 18 10 11 1 7 7 5 7 11 11 9 10 11 12 17 17 16 11 15 14 13 13 12 21 22 25 28 26 25 23 24 24
25 25 26 21 23 23 23 22 20 17 12 8 9 8 7 10 11 9 7 7 8 12 10 7 11 11 14 15 17 19 21 23 24 22 20 19 13 14 21 21 22 17 26 25 25 23 22
26 25 25 25 24 23 22 21 21 16 13 10 12 10 6 8 10 11 14 15 14 15 14 18 16 16 20 19 19 24 27 29 30 26 27 22 19 14 16 18 19 20 19 23 25 24 24
27 26 27 27 26 24 21 21 19 17 14 14 13 12 6 7 14 15 16 17 19 17 17 22 19 20 19 17 13 15 14 19 21 26 24 21 18 11 13 16 21 28 20 23 20 20 16
28 29 29 27 26 26 21 21 19 19 15 17 18 16 16 9 13 20 14 18 13 14 14 16 13 16 16 14 10 13 12 19 10 11 12 11 20 14 14 18 20 22 22 35 23 20 15
31 30 29 28 25 25 21 22 20 20 19 19 23 19 22 14 24 23 22 16 20 15 9 19 21 16 18 10 10 13 16 18 19 23 19 13 11 14 16 17 14 19 26 32 18 8 17
30 29 27 26 25 23 22 23 22 21 21 21 24 19 22 23 31 30 31 31 25 24 12 19 14 13 13 12 12 13 14 15 19 22 22 19 13 8 5 9 20 14 11 6 11 16 14
27 26 26 26 25 25 25 25 24 23 23 23 30 24 24 30 29 32 27 28 30 32 29 26 25 26 16 8 7 4 8 10 17 13 15 14 13 7 5 7 20 32 25 11 15 18 19
Wind_Direction
24 22 19 14 13 10 7 3 1 359 354 349 345 339 333 327 323 318 312 298 289 292 298 306 310 309 315 269 262 282 283 286 290 291 240 243 243 243 250 251 252 247 242 247 256 291 296
19 19 14 13 10 8 5 1 359 357 355 350 346 341 335 328 322 319 315 306 288 288 293 300 304 307 301 260 248 281 280 260 258 251 260 244 251 247 260 268 256 256 254 245 259 232 261
19 17 12 10 8 6 2 359 358 357 355 350 345 341 337 330 322 320 317 308 292 287 290 291 297 304 266 247 237 271 273 255 247 253 259 259 255 254 268 256 268 267 274 247 252 209 237
18 14 10 7 4 3 0 356 356 356 355 352 346 342 337 332 324 320 317 310 297 288 286 284 295 303 256 250 250 248 249 251 248 242 246 260 286 273 267 273 281 253 255 253 235 214 214
14 10 7 4 0 359 358 354 355 355 353 353 347 343 339 333 329 326 320 313 303 288 283 280 301 253 266 265 252 263 235 238 240 241 241 245 251 260 251 244 252 244 245 226 246 200 199
7 4 3 1 358 356 355 353 351 352 352 352 349 345 342 337 335 334 334 322 318 290 295 284 243 272 251 246 216 229 235 228 231 230 236 233 242 241 231 235 228 231 230 244 237 237 200
0 5 0 358 354 353 354 351 348 349 351 351 349 345 345 342 343 11 10 20 324 311 238 229 191 241 297 226 280 252 228 225 225 233 230 224 233 235 236 227 250 253 246 242 234 244 194
3 0 353 354 352 351 352 349 348 350 352 351 348 347 347 349 7 32 29 57 27 320 296 262 259 254 253 271 270 258 224 213 216 228 227 240 234 244 250 257 247 241 257 256 262 238 192
8 5 1 357 353 352 351 350 348 351 353 351 348 350 351 354 36 23 24 25 346 335 267 286 239 244 245 241 250 253 229 221 227 226 238 241 247 238 234 254 258 252 243 247 257 260 227
4 0 359 358 351 351 350 350 349 352 352 350 349 352 355 0 15 350 11 346 342 346 274 180 191 246 210 227 265 237 231 216 230 244 235 247 254 256 252 252 246 258 252 261 264 261 198
3 357 355 355 354 352 350 350 352 352 351 349 349 350 3 14 3 352 321 321 329 337 316 137 127 127 157 211 343 198 219 222 237 233 236 252 248 251 251 257 254 260 280 278 268 266 251
3 358 357 355 353 353 350 350 351 351 351 348 349 353 356 6 337 318 318 330 335 236 249 152 109 198 212 224 248 271 224 228 243 249 261 258 263 262 243 260 255 249 258 263 269 270 256
2 360 358 354 353 351 350 349 350 350 351 348 352 356 14 10 328 329 342 323 259 189 194 61 7 331 316 300 250 230 206 218 230 234 247 254 252 249 254 246 264 259 240 244 249 246 249
358 356 356 354 351 350 350 350 349 350 351 349 351 356 30 327 326 338 340 248 208 274 357 4 346 318 286 278 262 241 232 242 217 248 274 267 243 233 228 235 235 236 231 228 235 231 241
350 351 352 353 350 349 349 350 351 350 349 350 345 355 339 344 333 354 296 256 252 11 2 343 322 271 271 251 257 271 293 250 256 240 243 251 265 281 266 221 219 234 248 246 234 259 263
345 344 347 348 349 348 347 349 351 353 351 353 355 332 319 341 331 349 260 272 84 7 343 330 305 318 321 335 336 306 252 37 349 359 348 308 303 277 267 293 226 228 244 247 225 239 249
341 339 339 343 344 345 345 346 350 354 353 1 355 318 343 349 349 290 6 299 6 350 347 330 339 315 321 316 322 309 294 52 8 343 329 346 289 277 291 252 256 236 237 248 268 261 233
337 337 335 335 341 341 343 343 347 355 353 15 350 353 338 12 40 9 355 1 334 346 355 338 322 343 319 337 312 310 305 47 25 7 2 3 311 283 273 284 277 266 260 246 231 253 259
334 334 334 332 335 338 341 341 345 353 357 348 342 325 351 16 49 13 331 304 315 350 349 352 310 354 323 316 307 289 285 44 24 11 18 347 314 292 267 260 268 261 259 256 266 263 242
329 329 330 331 333 334 337 339 341 352 359 351 336 331 351 28 7 345 353 333 324 53 315 354 305 302 327 324 304 291 310 333 346 334 353 308 273 275 275 291 305 299 290 265 257 254 261
324 326 326 328 332 331 334 336 337 346 0 351 349 318 355 313 339 334 328 316 313 337 8 329 333 309 347 324 320 290 320 326 317 311 310 273 279 297 290 289 292 296 296 295 289 291 263
319 321 321 323 323 326 330 331 336 339 355 338 340 335 327 301 312 290 350 283 287 321 333 316 302 327 319 305 297 309 327 321 306 321 311 299 285 285 290 289 290 289 284 279 272 269 269
315 317 320 319 316 322 322 323 328 326 338 315 323 304 306 303 299 294 286 295 304 297 305 275 301 292 290 301 320 310 298 290 279 282 280 284 283 281 272 289 288 281 260 265 269 271 280
313 312 314 311 312 315 314 311 315 316 304 284 296 300 281 286 302 300 309 307 299 301 303 303 297 287 289 304 305 295 282 277 270 259 244 254 257 262 269 286 260 254 277 274 271 273 281
304 305 308 307 308 310 308 307 306 308 298 283 279 281 268 270 283 291 292 297 296 289 291 292 291 289 298 297 293 294 301 286 266 249 245 222 238 255 246 251 271 276 256 263 259 287 339
304 303 305 304 304 306 301 300 298 298 296 283 276 269 264 274 264 277 288 293 291 289 293 284 299 306 304 291 290 279 274 286 275 299 316 270 213 229 243 254 251 262 261 268 278 274 23
301 303 301 301 299 302 295 294 291 289 290 284 281 269 268 249 259 271 270 286 286 278 276 289 286 292 308 285 267 268 269 280 280 279 281 287 288 231 230 239 264 278 294 298 277 293 49
299 300 300 299 298 297 290 291 292 284 283 281 280 274 268 268 271 267 268 267 269 270 274 276 281 283 290 283 266 266 264 264 267 266 266 267 270 252 246 267 247 261 311 354 360 8 10
297 297 295 294 293 293 288 287 285 281 280 279 276 279 280 269 267 270 263 263 262 260 262 263 267 277 265 267 283 317 286 273 276 283 288 276 286 310 284 266 305 322 323 316 331 339 342